RS21S (CUBESX-HSE-2)

Last updated on Wed Jul 12 2023 00:03:08 GMT+0000 (Coordinated Universal Time)

1 53383U 22096P 23192.46331624 .00021126 00000+0 56407-3 0 9993 2 53383 97.4113 98.8678 0002945 24.4512 335.6872 15.38129554 51411
UTC large
Height (km)
Speed (km/s)
/
Latitude / Longitude
Inclination (degrees)
Orbital Period (minutes)
Azimuth
Elevation
Range (km)
Doppler Factor

Next 0 passes for location: London (51.5072 / 0.1276)

Sorry there are no passes over London.
RS21S (CUBESX-HSE-2)